Location: Dunedin
(45.8670°S, 170.5000°E)
Time: 01:36:44
(UTC+13:00)

ERBS - Pass Details

Date: 24 January 2019
Orbit: 418 x 432 km, 57.0° (Epoch: 19 February)

Event Time Altitude Azimuth Distance (km) Brightness Sun altitude
Rises 22:28:43 0° 228° (SW) 2,445 8.5 -10.6°
Reaches altitude 10° 22:30:54 10° 222° (SW) 1,571 6.7 -10.8°
Maximum altitude 22:34:19 48° 146° (SE) 592 3.0 -11.3°
Enters shadow 22:36:55 16° 74° (ENE) 1,250 4.1 -11.6°
